Weather Roundup
Issued by NWS Chicago, IL

Home | Current Version | Previous Version | Graphics & Text | Print | Product List | Glossary On
Versions: 1 2 3 4 5 6 7 8 9 10 11 12 13 14 15 16 17 18 19 20 21 22 23 24 25 26 27 28 29 30 31 32 33 34 35 36 37 38 39 40 41 42 43 44 45 46 47 48 49 50
000
NZUS59 KLOT 250208
HRRLOT

CHICAGO AREA WEATHER ROUNDUP
NATIONAL WEATHER SERVICE CHICAGO/ROMEOVILLE IL
900 PM CDT TUE APR 24 2018

NOTE: "FAIR" INDICATES FEW OR NO CLOUDS BELOW 12,000 FEET WITH NO
SIGNIFICANT WEATHER AND/OR OBSTRUCTIONS TO VISIBILITY.

* THESE STATIONS ARE NOT UNDER NWS QUALITY CONTROL. THEY ALSO MAY NOT
  REPORT WEATHER SUCH AS PRECIPITATION OR FOG.

ILZ005-006-012>014-019>023-250300-
NORTHEAST ILLINOIS

CITY           SKY/WX    TMP DP  RH WIND       PRES   REMARKS
OHARE            N/A     53  46  77 NE8       30.00R
MIDWAY           N/A     54  48  80 NE8       30.00S
AURORA           N/A     57  47  69 NE6       30.00R
LANSING*         N/A     48  46  95 NE5       30.01S
JOLIET*          N/A     57  49  75 E7        30.00R
WAUKEGAN         N/A     47  45  93 N8        30.02R
DUPAGE AIRPORT   N/A     54  48  80 NE5       30.00R
WHEELING         N/A     51  46  83 NE5       30.03R
KANKAKEE*        N/A     52  47  83 NE7       30.01R
MORRIS*          N/A     56  46  69 E5        29.99R
LEWIS AIRPORT*   N/A     54  48  78 E7        30.00R
NORTHERLY ISL    N/A     47  44  90 N8          N/A
$$

WIZ051-052-058>065-066-070>072-250300-
SOUTHEAST WISCONSIN

CITY           SKY/WX    TMP DP  RH WIND       PRES   REMARKS
MILWAUKEE        N/A     46  44  93 N8        30.04R
KENOSHA*         N/A     49  44  83 N6        30.03R
RACINE*          N/A     44  43  96 N6        30.05R
BURLINGTON       N/A     52  46  81 E7        30.03R
WAUKESHA       CLEAR     50  45  81 E6        30.03S
WEST BEND      MOCLDY    50  45  81 NE18G24   30.05R
$$

INZ001>003-010>013-019-020-250300-
NORTHWEST INDIANA

CITY           SKY/WX    TMP DP  RH WIND       PRES   REMARKS
GARY*          PTCLDY    45  43  93 CALM      30.01S
MICHIGAN CITY* NOT AVBL
RENSSELAER*    NOT AVBL
VALPARAISO     CLOUDY    53  48  83 N7        30.00R
$$

LMZ740>746-250300-
SOUTHERN LAKE MICHIGAN

STATION/POSITION TIME  SKY/WX   TEMP WIND        PRES    VSBY
                                AIR  DIR/SP/G
                 (UTC)          (F)  (DEG/KT/KT) (MB)    (MI)
HARRISON CRIB    0140            44  360/  5/  6   N/A
BURNHAM HARBOR   0200            47   10/  8/  9   N/A
CALUMET HARBOR   0148            44  340/  6/  8 1015.9R
BURNS HARBOR     0140            43   CALM  /  4 1016.9R
MICHIGAN CITY    0140            44  290/  3/  3   N/A
$$

ABBREVIATIONS USED IN REMARKS
   TC - TEMPERATURE IN CELSIUS
  WCI - WIND CHILL INDEX
   HX - HEAT INDEX
  VSB - VISIBILITY
$$



USA.gov is the U.S. government's official web portal to all federal, state and local government web resources and services.